Content
SEND FEEDBACK

Daily
Averages
Monthly
Summary
China

TAIYUAN, CHINA


Home > Asia > China
Elevation: 2555 feet     Latitude: 37 47N     Longitude: 112 33E

WEATHER
 
SELECT A DAY
Number of Records: 236,766;   Date Range: 7/1/96 - 12/21/14
 
SHARE

PRINT THIS DATA

[ ← Previous Day ]
WEATHER ALMANAC - FEBRUARY 1, 2013
[ Next Day → ]
[ °C ]   °F
Weather ElementAverageHighLow
Temperature34.2 °F48.2 °F (3:30 pm)19.4 °F (5:00 am)
Dewpoint11.6 °F24.8 °F (1:00 am)1.4 °F (12:00 pm)
Humidity45 %91 % (8:00 am)18 % (12:00 pm)
Barometer30.21 in30.42 in (11:00 pm)30.12 in (12:30 am)
Wind Speed4.3 mph8.9 mph (9:00 pm)
Weather ElementAverage
Visibility3.1 mi
Wind DirectionSSW (189.6 °)

Weather ElementTotal
Precipitation---
Heating Degree Days31.2 (Base 65)
Averaged from 51 records on February 1, 2013
WEATHER CONDITIONS BREAKOUT
WIND DIRECTION BREAKOUT
WEATHER BY HOUR - FEBRUARY 1, 2013
[ °C ]   °F
Local TimeTemperatureDewpointHumidityBarometerVisibilityWind DirectionWind SpeedGust SpeedPrecipitationEventsConditions
12:30 AM26.6 °F23.0 °F86 %30.12 in0.6 miENE (70°)2.2 mphMist
1:00 AM28.4 °F24.8 °F86 %30.12 in0.6 miESE (110°)4.5 mphMist
1:30 AM24.8 °F21.2 °F86 %30.12 in0.8 miESE (120°)2.2 mphMist
2:00 AM23.0 °F19.4 °F86 %30.12 in1.2 miNNE (20°)4.5 mphMist
2:30 AM24.8 °F19.4 °F80 %30.12 in1.1 miENE (70°)4.5 mphMist
3:00 AM23.0 °F19.4 °F86 %30.12 in1.2 miNNE (20°)4.5 mphMist
3:30 AM23.0 °F19.4 °F86 %30.12 in1.2 miNE (40°)4.5 mphMist
4:00 AM23.0 °F17.6 °F80 %30.12 in1.9 miEast (100°)2.2 mphMist
4:30 AM23.0 °F17.6 °F80 %30.12 in2.5 miNNW (340°)2.2 mphMist
5:00 AM19.4 °F14.0 °F80 %30.12 in2.5 miENE (60°)2.2 mphMist
5:30 AM23.0 °F15.8 °F74 %30.12 in2.5 miNNE (30°)2.2 mphMist
6:00 AM23.0 °F17.6 °F80 %30.15 in3.7 miEast (100°)2.2 mph
6:30 AM21.2 °F14.0 °F74 %30.15 in3.1 miNNW (340°)6.7 mphHaze
7:00 AM26.6 °F12.2 °F55 %30.18 in4.3 miNNW (330°)6.7 mph
7:30 AM28.4 °F10.4 °F47 %30.18 in4.3 miNW (310°)6.7 mph
8:00 AM21.0 °F19.0 °F91 %30.37 in2.0 miWest (270°)2.2 mphMist
8:00 AM24.8 °F12.2 °F59 %30.21 in4.3 miEast (80°)2.2 mph
8:30 AM24.8 °F14.0 °F64 %30.21 in3.7 miEast (90°)2.2 mph
9:00 AM30.2 °F17.6 °F60 %30.24 in3.7 miEast (90°)4.5 mph
9:30 AM32.0 °F12.2 °F44 %30.24 in4.3 miNNE (30°)4.5 mph
10:00 AM35.6 °F12.2 °F38 %30.24 in4.3 miEast (100°)2.2 mph
10:30 AM37.4 °F12.2 °F36 %30.24 in4.3 miSE (140°)4.5 mph
11:00 AM39.0 °F13.0 °F21 %30.36 in5.0 miSE (140°)4.5 mphHaze
11:00 AM39.2 °F8.6 °F28 %30.24 in5.0 miNNE (30°)2.2 mph
11:30 AM41.0 °F6.8 °F24 %30.24 inSouth (190°)6.7 mphClear
12:00 PM42.8 °F1.4 °F18 %30.24 inWSW (250°)6.7 mphClear
12:30 PM42.8 °F6.8 °F23 %30.24 inSW (220°)6.7 mphClear
1:00 PM44.6 °F6.8 °F21 %30.21 inWSW (250°)4.5 mphClear
1:30 PM44.6 °F8.6 °F23 %30.21 inSSW (210°)4.5 mphClear
2:00 PM46.4 °F6.8 °F20 %30.18 inSouth (190°)4.5 mphClear
2:30 PM46.4 °F8.6 °F22 %30.18 inSSW (200°)4.5 mphClear
3:00 PM46.4 °F6.8 °F20 %30.18 inSSW (210°)4.5 mphClear
3:30 PM48.2 °F6.8 °F19 %30.18 inSSW (200°)4.5 mphClear
4:00 PM48.2 °F8.6 °F20 %30.18 inSW (230°)4.5 mphClear
4:30 PM46.4 °F10.4 °F23 %30.18 inSW (220°)4.5 mphClear
5:00 PM46.0 °F16.0 °F18 %30.30 in6.0 miNNW (340°)2.2 mphClear
5:00 PM46.4 °F10.4 °F23 %30.18 in4.3 miWest (280°)2.2 mph
5:30 PM44.6 °F10.4 °F25 %30.18 in4.3 miSSW (210°)4.5 mph
6:00 PM37.4 °F8.6 °F30 %30.21 in3.1 miNNE (30°)2.2 mphHaze
6:30 PM37.4 °F10.4 °F33 %30.21 in2.5 miNW (320°)2.2 mphHaze
7:00 PM37.4 °F12.2 °F36 %30.24 in1.9 miNorth (10°)2.2 mphHaze
7:30 PM33.8 °F10.4 °F38 %30.24 in1.9 miNorth (350°)2.2 mphHaze
8:00 PM35.6 °F12.2 °F38 %30.24 in1.9 miNNW (340°)2.2 mphHaze
8:30 PM39.2 °F6.8 °F26 %30.27 in4.3 miWNW (300°)4.5 mph
9:00 PM39.2 °F5.0 °F24 %30.27 inNNW (340°)8.9 mphClear
9:30 PM37.4 °F3.2 °F24 %30.27 inNNW (330°)6.7 mphClear
10:00 PM35.6 °F3.2 °F26 %30.27 inNNW (340°)6.7 mphClear
10:30 PM35.6 °F1.4 °F24 %30.30 inNW (310°)8.9 mphClear
11:00 PM29.0 °F14.0 °F39 %30.42 in6.0 miSE (140°)4.5 mphClear
11:00 PM33.8 °F1.4 °F25 %30.30 inNW (320°)8.9 mphClear
11:30 PM33.8 °F1.4 °F25 %30.30 inNW (310°)8.9 mphClear
Hourly data recorded from ZBYN, located miles away from Taiyuan, China







STORIES FROM OUR PARTNERS